Loisir ou Compétition : Rejoignez un Club de la Fédération

Résultats

42 ième Grand Prix d'Agy 2017

LES CARROZ

FS Hommes

Jury de Compétition

Délégué Technique :
PERRILLAT BOTONNET JOEL (MB)
D.T. Adjoint :
 
Dir. Epreuve :
DESGRANGES JEAN LOUIS (MB)

Caractéristiques de la Piste

Piste :
Agy
Distance :
3 KM km
Point Haut :
 
Point Bas :
 
Montée Tot. :
 
Montée Max. :
 
Homologation :
 

Pénalité Appliquée :
 
Coefficient :
 

Catégorie :
U12
Style :
C
Clt Dos Clt/Cat Code An Nom Prénom Com Club Temps Ecart Points
Classés
1 32 1/U12 FFS2686663 2005 PERRILLAT BOITEUX ANTHONY MB SC GD BORNAN 12:00.6 00:00.0
2 37 2/U12 FFS2686695 2005 PERRILLAT BOTTONET JUDICA MB SC GD BORNAN 12:03.8 00:03.2
3 39 3/U12 FFS2676910 2005 CLAVEL SIMON MB CS LA CLUSAZ 12:09.3 00:08.7
4 34 4/U12 FFS2671565 2005 COLOMBAN ALEXIS MB SCNP ROCHOIS 12:19.6 00:19.0
5 4 5/U12 FFS2673756 2005 PEYRON ARTHUR MB CS CHAMONIX 12:26.9 00:26.3
6 13 6/U12 FFS2686260 2005 BOSSUT AUGUSTIN MB PRAZ LYS-SOM 12:31.1 00:30.5
7 2 7/U12 FFS2687455 2005 FOUCAULT LECERF MAE MB SCNP ROCHOIS 12:39.2 00:38.6
8 20 8/U12 FFS2686795 2005 DELERCE THIBAULT MB SC D'AGY 12:39.8 00:39.2
9 44 9/U12 FFS2686938 2005 VALLEIX JORIS MB SCNP ROCHOIS 12:41.6 00:41.0
10 9 10/U12 FFS2686539 2005 LACROIX MATTHIAS MB DRAGONS ANNY 12:46.0 00:45.4
11 23 11/U12 FFS2686939 2005 GRENARD MAX MB SCNP ROCHOIS 12:57.6 00:57.0
12 40 12/U12 FFS2687101 2005 FROIDURE ANTONIN MB SCNP ROCHOIS 13:04.7 01:04.1
13 18 13/U12 FFS2666324 2005 FAVRE FELIX KILLIAN MB SC GD BORNAN 13:21.2 01:20.6
14 15 14/U12 FFS2686672 2005 BROCHANT LUCAS MB SC GD BORNAN 13:28.3 01:27.7
15 35 15/U12 FFS2686543 2005 ROMERI NATHAN MB DRAGONS ANNY 13:33.2 01:32.6
16 10 16/U12 FFS2686940 2005 LEVET PROSPER MB SCNP ROCHOIS 13:34.4 01:33.8
17 29 17/U12 FFS2667744 2005 BIZZOCCHI ESTEBAN MB SC D'AGY 13:36.4 01:35.8
18 28 18/U12 FFS2687034 2005 FIVEL DEMORET HUGO MB SC CONTAMINE 13:37.8 01:37.2
19 21 19/U12 FFS2686538 2005 JOMIER LOIS MB DRAGONS ANNY 13:51.8 01:51.2
20 36 20/U12 FFS2686262 2005 LESSERTISSEUX VALENTIN MB PRAZ LYS-SOM 13:53.6 01:53.0
21 41 21/U12 FFS2686905 2005 MIR EMARATI MILO MB CS CHAMONIX 13:57.5 01:56.9
22 19 22/U12 FFS2690481 2005 THABUIS BASILE MB VILLARD/BOEG 13:59.9 01:59.3
23 11 23/U12 FFS2686535 2005 FAILLENET JORIS MB DRAGONS ANNY 14:00.5 01:59.9
24 26 24/U12 FFS2686542 2005 PEYRET TILIEN MB DRAGONS ANNY 14:04.6 02:04.0
25 5 25/U12 FFS2681304 2005 PERSONNAZ LOAN MB DRAGONS ANNY 14:09.2 02:08.6
26 45 26/U12 FFS2686793 2005 MARIE ADELIN MB SC D'AGY 14:10.6 02:10.0
27 49 27/U12 FFS2687103 2005 MOREAU SIMEON MB SCNP ROCHOIS 14:11.1 02:10.5
28 12 28/U12 FFS2687102 2005 SYLVESTRE BARON PAUL MB SCNP ROCHOIS 14:12.3 02:11.7
29 42 29/U12 FFS2686259 2005 DUCREY BRICE MB PRAZ LYS-SOM 14:16.0 02:15.4
30 25 30/U12 FFS2686914 2005 LESCOUFF RONAN MB CS CHAMONIX 14:17.0 02:16.4
31 46 31/U12 FFS2686801 2005 GARBY KEVIN MB SC D'AGY 14:28.9 02:28.3
32 14 32/U12 FFS2686693 2005 PASSERAT BENJAMIN MB SC GD BORNAN 14:35.0 02:34.4
33 16 33/U12 FFS2688678 2005 REPELLIN CHARLES MB VILLARD/BOEG 14:40.5 02:39.9
34 47 34/U12 FFS2688043 2005 MAGNIEZ OSCAR MB DRAGONS ANNY 14:56.5 02:55.9
35 38 35/U12 FFS2686698 2005 PERILLAT NOAH MB SC GD BORNAN 14:56.9 02:56.3
36 31 36/U12 FFS2680344 2005 DELERCE GASPARD MB LES GETS S.C 15:03.5 03:02.9
37 24 37/U12 FFS2688657 2005 BARD ILANN MB VILLARD/BOEG 15:07.4 03:06.8
38 8 38/U12 FFS2690480 2005 POTARD RAPHAEL MB VILLARD/BOEG 15:17.3 03:16.7
39 33 39/U12 FFS2688658 2005 COLLOMB EMILIO MB VILLARD/BOEG 15:31.5 03:30.9
40 7 40/U12 FFS2686544 2005 SOULAS MALO MB DRAGONS ANNY 15:38.1 03:37.5
41 6 41/U12 FFS2690478 2005 GROMAIRE THYLIO MB VILLARD/BOEG 15:53.0 03:52.4
42 48 42/U12 FFS2667745 2005 SARRAZIN BAPTISTE MB SC D'AGY 16:30.6 04:30.0
43 30 43/U12 FFS2686531 2005 BALDUCCI UGO MB DRAGONS ANNY 16:34.9 04:34.3
44 27 44/U12 FFS2688042 2005 JOUVENSAL MATHIEU MB DRAGONS ANNY 16:37.5 04:36.9
45 43 45/U12 FFS2686534 2005 BRISBARD TIMOTHE MB DRAGONS ANNY 16:52.5 04:51.9
Non partants
1 FFS2686242 2005 VIGUIER QUENTIN MB CS LA CLUSAZ
3 FFS2686691 2005 FOURNIER BIDOZ MAXIME MB SC GD BORNAN
22 FFS2686681 2005 DELOCHE LINO MB SC GD BORNAN